Theta_e
315 317 318 318 319 319 317 316 315 315 316 315 315 316 315 313 315 316 316 316 318 316 318 330 340 339 339 338 336 336 334 333 332 332 332 332 333 332 332 330 327 324 324 324 325 325 326 328 328 327 328 329 331 333 333 333 333 334 335 335 335 335 335 334 333 333 334 334 334 333 333 332 331 332 331 328 327 328 327 327 329 332 333 333 332 332
315 316 318 318 319 318 318 317 316 316 317 317 316 315 315 315 315 315 316 316 318 316 316 329 339 338 339 337 335 335 334 334 333 332 332 333 333 333 333 332 328 326 326 326 327 326 327 327 327 327 327 328 331 333 334 334 334 334 335 335 335 334 334 334 332 332 332 332 333 332 333 333 333 333 332 329 328 330 329 328 328 330 332 333 332 330
317 320 321 317 316 317 318 317 316 316 318 318 317 316 316 316 316 315 317 317 318 318 317 324 333 334 337 336 334 335 334 334 333 332 333 333 333 333 333 333 331 330 330 329 329 328 327 326 326 327 328 328 329 332 334 335 335 334 335 334 334 334 333 333 332 332 332 332 332 332 331 331 332 333 332 329 328 329 330 330 330 331 331 332 330 328
317 324 322 316 316 317 319 318 317 318 319 318 316 315 315 315 315 315 317 317 317 319 317 319 322 324 332 336 334 333 333 333 333 333 333 333 333 333 334 334 334 333 332 331 330 329 327 326 327 327 327 327 328 331 332 334 334 334 334 334 333 333 333 333 332 331 331 332 331 331 330 331 331 332 331 329 328 328 329 330 331 331 331 330 329 329
319 322 319 317 319 319 317 318 318 318 320 321 316 314 315 315 315 315 317 317 317 319 318 320 321 320 326 335 334 332 331 333 333 332 332 333 333 332 333 334 335 335 334 332 331 330 328 326 326 325 325 326 328 329 331 332 334 334 333 333 333 333 334 333 332 331 331 331 331 331 330 331 332 331 331 330 328 328 328 329 330 331 331 330 330 330
321 319 317 319 320 318 317 317 317 315 320 323 318 317 317 316 317 316 317 319 320 319 318 321 321 320 326 331 332 332 332 333 332 331 331 332 330 328 331 334 335 335 334 333 333 331 329 327 326 325 325 327 328 328 329 331 333 333 333 332 332 332 333 333 332 331 331 331 331 331 330 331 331 330 329 328 328 329 329 329 329 330 330 331 331 331
321 319 319 320 318 317 317 316 316 316 319 319 317 317 316 316 317 316 317 319 318 318 318 320 320 320 324 327 330 333 333 333 333 331 331 331 330 327 330 334 335 335 335 334 334 333 332 330 328 326 326 327 328 329 328 330 333 333 331 331 331 332 332 332 332 332 332 332 331 331 331 331 330 329 329 329 330 330 330 330 330 331 331 331 332 332
321 320 320 321 319 319 318 316 317 318 318 318 317 316 317 318 317 316 318 317 316 318 320 321 322 321 319 319 327 333 333 334 334 332 331 330 330 329 331 334 335 335 335 335 335 333 333 332 329 327 325 326 328 330 329 329 331 331 329 329 329 330 331 331 331 332 332 331 331 331 331 332 331 330 330 331 332 332 332 332 332 333 333 333 333 333
320 319 321 322 321 321 321 319 317 317 319 321 319 316 317 318 316 318 317 317 318 317 320 325 323 321 320 322 329 333 334 335 334 333 332 330 329 329 331 334 335 335 335 335 334 333 332 332 331 330 329 329 328 328 329 329 330 328 326 326 326 326 326 327 327 329 330 331 331 331 331 331 332 332 332 333 334 334 334 333 333 333 333 333 334 333
319 318 319 320 321 324 326 321 317 318 319 320 318 317 318 318 319 320 316 319 322 318 320 325 319 317 322 329 333 334 334 335 334 332 330 329 329 329 331 334 334 334 335 334 333 331 330 330 332 333 334 334 332 329 329 330 330 328 326 324 323 324 324 324 324 325 327 329 330 331 331 331 331 332 332 333 333 334 334 333 332 332 332 332 333 333
318 316 319 318 319 323 323 319 315 316 316 316 318 320 321 321 325 329 327 323 321 322 326 325 321 322 323 327 333 335 335 334 332 332 330 329 329 329 331 333 334 334 334 333 332 331 329 328 332 334 334 335 334 331 330 331 331 330 329 325 324 326 327 326 325 325 326 327 328 330 331 330 330 331 331 331 331 332 332 332 331 332 332 332 333 333
322 321 321 318 318 319 319 320 319 318 315 315 319 321 321 324 328 334 337 328 321 325 330 325 324 325 323 327 330 329 331 332 331 332 331 329 329 328 330 332 333 334 334 333 333 333 330 329 332 332 331 332 333 331 329 329 331 331 329 327 328 329 330 329 327 326 326 327 327 329 330 331 331 331 331 331 331 332 332 332 332 332 333 332 332 332
330 330 324 318 318 318 319 323 322 323 321 318 321 323 321 324 326 330 334 330 325 327 326 321 320 322 325 332 330 325 327 330 330 330 329 328 328 328 329 329 331 333 333 334 334 334 332 331 332 331 328 329 332 333 328 325 327 328 327 328 329 330 330 330 329 327 327 327 327 328 329 330 330 330 330 330 331 332 332 332 332 333 333 332 332 331
329 335 328 319 320 319 320 325 322 322 324 319 321 325 326 324 322 327 331 325 323 329 327 320 319 322 327 329 329 328 326 327 328 329 328 329 329 329 329 328 330 330 331 332 333 333 333 333 334 333 329 327 329 332 327 320 320 322 324 326 328 328 328 327 327 326 326 326 325 326 327 327 328 329 330 330 330 331 331 332 332 333 333 332 332 331
324 331 330 322 323 321 320 325 323 321 323 321 321 325 328 326 321 324 329 326 324 330 330 323 321 324 325 325 329 326 320 322 328 329 328 329 329 329 329 328 329 329 330 331 330 331 332 334 335 333 329 325 325 328 324 317 317 320 322 324 325 325 325 324 325 325 322 321 321 322 324 326 327 328 329 329 329 329 330 331 331 331 332 331 331 330
319 326 332 323 321 321 318 320 321 322 327 325 321 320 320 323 326 324 327 332 327 326 330 326 324 328 326 327 332 325 320 322 326 327 328 328 328 328 327 327 328 328 329 329 329 330 331 333 334 331 329 328 327 327 324 319 317 318 320 323 322 322 324 323 323 324 321 318 317 319 322 325 326 327 328 328 327 327 328 330 330 330 330 330 330 330
318 325 333 322 317 321 319 319 318 318 325 326 320 322 323 321 327 327 326 332 327 323 330 326 323 329 327 327 334 333 328 325 323 326 326 325 327 326 326 327 327 326 326 327 328 329 330 331 332 331 331 331 331 329 328 323 319 317 319 322 322 322 324 323 323 323 320 317 316 317 321 325 327 328 328 328 327 326 327 328 329 329 329 330 329 329
326 330 333 324 319 320 318 318 319 316 320 324 320 324 326 321 328 331 326 330 328 324 330 327 324 330 327 328 334 332 328 325 323 324 323 324 326 325 326 326 325 326 326 326 327 327 329 330 331 331 331 331 331 330 329 327 323 320 320 321 322 323 324 324 324 323 320 317 316 316 320 325 327 328 328 327 326 326 326 327 327 328 328 328 328 328
328 328 331 328 320 321 323 320 321 322 320 320 319 320 322 321 328 330 325 328 327 322 327 329 327 329 329 333 333 325 327 329 326 325 324 324 325 325 326 326 325 327 327 327 327 327 328 328 329 331 330 330 330 329 328 328 326 323 321 322 324 325 326 325 325 324 322 320 318 317 319 323 325 326 326 326 325 324 324 325 325 325 326 326 327 327
328 324 328 331 321 321 330 324 324 331 325 319 318 318 322 323 325 324 323 328 327 324 328 329 327 329 333 339 337 329 334 335 330 331 328 322 324 326 326 326 326 327 327 327 327 326 327 327 327 329 329 329 329 329 329 328 327 324 323 324 326 326 327 327 326 326 324 323 322 321 321 322 324 324 324 324 324 324 324 324 325 325 325 326 326 327
325 320 326 334 324 320 328 327 328 332 327 322 320 318 319 319 321 321 321 326 327 327 330 328 328 335 337 338 337 332 337 337 331 334 330 321 322 326 326 326 327 326 327 327 327 326 326 326 327 328 328 328 328 329 330 329 327 325 325 326 327 327 327 327 327 326 325 324 323 324 324 324 324 324 323 323 324 324 324 325 325 325 325 325 325 325
323 323 330 332 323 321 331 335 331 327 327 327 324 324 323 321 324 324 323 328 328 326 330 327 327 336 337 335 337 333 334 332 324 324 324 319 320 323 324 324 325 325 326 326 326 326 326 327 327 328 328 328 329 330 330 329 328 326 326 327 327 327 327 326 326 326 325 324 324 325 324 323 322 321 321 322 324 325 325 325 325 324 324 324 324 324
325 329 328 325 324 324 328 331 322 318 323 325 324 328 329 328 330 327 329 335 330 324 329 326 324 334 339 335 334 328 325 323 319 318 319 318 319 320 321 322 322 324 325 325 326 326 325 326 326 327 328 329 329 330 330 329 329 328 327 328 327 327 326 326 326 325 325 323 323 323 322 321 320 319 320 322 324 325 324 324 325 324 323 323 322 323
325 328 322 326 334 330 327 330 324 321 323 320 322 327 325 327 331 329 330 335 329 325 327 324 324 333 341 335 326 320 319 319 318 319 318 318 320 320 320 321 321 322 323 324 325 325 325 325 326 326 328 329 330 330 329 329 329 328 328 328 327 327 326 325 325 325 324 322 322 321 321 321 320 318 319 321 322 322 322 323 323 323 323 322 321 321
322 329 325 326 332 330 330 334 331 331 328 321 325 327 322 324 325 324 326 325 325 329 327 323 325 333 341 334 322 319 321 321 319 318 318 319 320 319 320 321 320 321 323 324 324 325 325 325 326 326 327 328 329 329 330 329 328 328 328 328 327 327 326 325 324 324 323 322 322 321 321 321 320 319 319 320 319 320 320 320 321 321 321 321 321 321
324 333 330 327 328 326 328 331 331 330 326 323 329 328 323 323 321 323 327 323 326 331 327 324 328 332 336 331 322 323 325 321 319 318 318 319 318 319 320 319 320 320 321 322 323 325 325 325 326 326 327 328 328 329 329 328 327 327 328 327 327 327 326 325 324 323 323 322 321 320 321 321 320 319 319 319 318 319 318 318 318 318 319 319 320 321
327 331 331 330 329 325 326 332 334 328 322 324 329 327 326 327 323 325 328 326 331 332 327 329 329 327 331 328 323 326 327 325 323 318 318 319 318 319 319 318 320 319 319 321 322 323 325 326 326 326 327 327 327 327 328 327 327 327 327 327 326 326 325 324 323 322 321 321 320 320 320 320 319 319 319 318 318 318 318 317 317 317 318 318 320 321
324 324 328 330 328 327 329 332 331 327 323 324 326 326 329 330 325 324 324 327 333 328 326 334 331 324 329 331 328 328 329 330 325 317 318 320 318 319 319 318 319 319 319 321 322 323 324 325 326 326 325 325 325 325 325 325 326 326 325 325 325 325 324 323 322 321 320 320 319 320 320 319 319 319 318 318 318 318 317 317 317 318 319 319 320 321
322 324 328 327 326 328 329 328 327 326 325 325 325 327 329 328 327 326 324 326 329 324 324 332 330 324 326 329 330 328 325 325 322 318 319 319 318 319 319 318 319 318 319 321 321 322 321 322 324 325 325 325 324 324 324 324 324 324 324 324 324 324 323 322 322 320 320 320 319 319 319 318 318 318 318 318 317 317 317 317 318 319 320 320 320 320
323 329 330 323 323 328 329 328 327 325 324 324 325 327 328 327 327 326 325 325 325 324 325 327 328 325 323 323 325 324 320 319 319 319 319 318 318 319 319 319 319 318 319 320 320 320 320 321 322 323 324 324 324 324 325 324 325 324 324 324 324 323 322 322 322 322 321 320 319 319 318 318 318 318 317 317 317 316 316 317 318 318 318 319 318 318
321 328 330 322 322 329 330 328 326 324 324 323 324 327 326 325 325 325 324 324 324 324 324 325 326 325 321 319 320 319 318 318 318 318 318 319 319 319 318 319 318 318 319 319 319 320 320 321 321 322 322 322 321 323 324 325 325 325 324 324 324 323 323 322 323 322 321 321 320 319 318 318 318 317 317 317 316 317 317 317 317 318 318 318 317 316
323 327 330 325 325 329 328 325 326 326 325 323 324 325 324 323 325 324 324 326 326 324 324 325 325 324 321 319 318 318 318 317 316 317 319 319 319 319 319 319 318 319 319 319 319 319 319 320 320 321 321 321 320 321 321 323 325 325 324 324 323 323 323 322 322 322 321 320 319 319 318 318 317 317 317 316 316 316 317 317 317 317 317 316 315 315
327 330 330 326 325 327 327 325 326 325 324 324 324 324 323 324 325 324 323 327 326 323 324 325 323 322 321 321 321 322 321 319 318 318 319 319 319 318 318 318 318 318 319 319 319 319 319 319 319 319 320 320 320 320 319 321 323 325 325 324 323 322 322 322 322 322 321 320 319 318 318 317 317 316 316 316 316 316 316 316 316 316 316 315 314 314
328 329 329 326 325 327 328 327 325 324 324 324 325 327 325 324 326 326 325 327 327 325 325 326 324 323 322 322 323 323 323 321 319 319 319 319 318 318 318 318 318 318 318 319 319 319 319 319 319 319 319 320 320 320 320 320 321 323 325 324 322 322 322 322 322 322 321 319 318 318 318 317 317 316 316 316 316 316 316 315 315 315 314 314 313 313
329 328 327 326 325 326 326 326 325 325 324 322 324 327 325 323 325 325 325 327 327 326 327 326 326 326 322 319 320 320 320 320 320 320 320 319 318 319 319 318 318 318 318 318 319 319 319 319 319 319 319 320 320 321 321 321 320 322 324 323 322 321 321 322 322 321 321 319 318 318 317 317 316 315 315 315 315 315 315 315 315 314 314 313 313 313
329 328 326 325 325 324 323 324 325 324 322 321 323 323 322 322 324 323 324 328 329 328 328 327 326 324 318 316 318 319 319 320 320 320 320 320 319 319 319 319 318 318 318 318 318 318 318 318 319 319 319 320 320 321 322 321 320 322 323 323 322 321 321 321 321 321 320 319 318 318 317 316 315 315 315 315 315 315 315 314 314 313 313 312 312 312
325 326 325 324 323 323 323 323 323 322 322 322 323 323 321 320 321 321 323 329 333 330 324 323 325 323 318 316 318 319 320 318 319 320 319 319 320 319 319 319 319 318 318 318 318 318 318 318 318 318 319 319 320 321 322 321 321 321 323 323 322 321 320 320 320 320 320 319 318 317 316 315 315 315 314 314 314 314 314 314 313 313 312 312 312 312
321 323 324 323 322 321 322 323 323 323 323 323 324 326 323 318 320 320 319 326 333 326 318 321 326 323 319 317 317 319 318 318 323 324 319 318 320 319 319 319 318 318 319 318 318 318 318 318 318 318 318 318 319 320 321 322 321 321 322 322 321 321 320 319 319 319 319 318 317 316 315 314 314 314 314 314 313 313 313 313 313 313 313 312 312 312
322 321 321 321 321 321 321 323 324 323 324 326 327 326 321 318 319 318 319 327 331 321 315 321 323 320 317 316 317 319 319 322 328 326 319 318 320 318 318 319 318 318 318 318 318 318 318 318 318 317 317 317 318 319 320 322 321 320 321 322 321 320 320 319 319 319 318 318 316 315 315 314 314 314 313 313 313 313 313 313 313 313 312 312 312 312
324 322 321 321 320 320 320 322 322 321 323 328 328 322 319 319 318 318 323 330 327 317 316 319 319 318 319 317 317 321 322 324 326 323 318 318 319 318 319 319 318 318 318 318 318 318 318 318 318 317 318 317 317 318 319 321 322 320 320 321 321 320 319 319 319 318 317 317 315 315 314 314 314 313 313 313 312 312 313 313 313 313 312 312 312 311
320 319 320 320 320 319 320 321 322 321 323 325 323 320 319 319 319 322 326 326 320 317 318 319 318 319 319 317 318 321 321 320 320 319 318 319 319 318 319 318 318 318 318 318 318 317 317 318 318 318 318 317 318 318 319 321 322 321 321 320 320 319 318 318 318 317 316 316 315 314 314 313 313 313 312 312 312 312 313 313 313 313 312 312 311 311
319 317 318 319 319 318 318 320 321 321 321 320 319 319 318 320 324 326 324 320 317 318 319 319 319 319 319 318 318 319 320 319 319 320 319 318 318 318 318 317 317 318 318 318 318 317 317 318 318 318 318 318 319 320 321 322 322 321 321 320 320 319 318 317 317 316 316 315 314 314 313 313 313 313 312 313 313 313 313 312 312 312 311 311 311 310
320 319 319 318 318 318 318 319 321 321 320 317 318 320 320 321 324 323 319 318 318 318 318 319 320 319 319 319 319 319 320 319 319 319 319 318 318 317 316 316 316 316 317 318 317 317 317 318 318 318 318 318 319 319 320 320 321 320 320 320 320 319 317 316 316 316 315 314 314 314 313 313 313 312 312 313 313 313 313 312 312 311 311 310 309 309
318 319 320 319 318 318 319 320 321 320 319 317 319 321 321 320 321 319 318 319 319 318 318 319 320 319 319 319 319 319 319 319 318 319 318 318 318 317 317 317 316 315 316 317 317 317 317 317 318 318 318 318 318 318 318 317 318 319 319 320 320 319 317 316 315 315 314 314 314 313 313 313 313 313 312 312 312 312 312 311 311 310 309 309 309 309
317 317 318 318 317 317 318 320 320 319 318 318 318 319 318 318 318 318 318 319 319 319 319 319 319 320 319 318 318 318 319 319 318 318 318 318 318 317 318 317 317 316 315 316 317 317 316 317 318 318 318 318 317 317 317 316 316 317 317 318 319 319 318 317 315 314 314 314 314 313 313 313 313 313 312 312 312 312 311 310 310 309 308 308 308 309
317 315 315 318 318 317 316 317 318 318 318 317 317 317 317 317 317 317 316 318 319 319 319 319 320 320 319 318 318 318 318 318 318 318 318 318 318 318 317 317 317 317 315 315 316 317 317 317 317 317 318 318 317 317 317 317 317 317 316 317 317 318 317 316 315 314 314 314 314 313 313 313 313 313 312 312 312 311 310 310 309 309 308 308 308 308
317 315 317 319 318 318 319 320 318 317 316 316 316 316 317 317 318 317 316 317 317 317 318 318 319 320 319 319 318 318 318 318 318 319 318 318 318 317 317 317 317 317 316 315 315 316 317 317 317 317 317 317 317 318 318 317 317 317 316 316 316 316 317 316 315 314 314 314 314 313 313 313 313 312 312 311 311 310 310 309 309 309 308 308 308 308
316 314 316 319 318 318 320 321 318 316 315 314 314 315 317 318 317 316 316 316 316 317 318 318 319 320 319 319 318 319 318 318 318 318 319 319 318 318 317 317 317 317 317 316 315 315 316 317 317 317 317 317 317 317 317 318 317 317 316 316 316 316 316 316 315 315 314 314 314 314 313 313 312 312 311 311 310 309 309 308 309 309 309 308 309 309
315 314 316 318 318 318 318 316 315 315 316 315 314 315 316 315 315 315 315 314 315 317 319 318 318 319 319 319 319 319 318 319 318 318 319 319 318 318 318 317 317 317 317 317 317 316 315 316 316 317 317 317 317 317 317 317 317 316 316 316 316 316 316 315 315 315 315 314 314 314 314 313 312 311 311 310 309 308 308 308 309 309 309 308 309 309
314 316 318 318 317 317 316 315 314 316 317 315 314 314 314 313 313 314 314 313 314 317 318 317 317 318 318 319 319 319 318 319 318 318 319 318 318 319 318 318 318 317 317 318 318 317 317 317 317 316 316 316 316 317 317 316 316 316 316 316 316 316 316 316 315 315 314 314 314 314 314 313 312 311 310 309 308 308 308 308 309 309 309 309 308 309
313 315 317 317 316 315 313 312 312 313 314 313 312 313 314 313 313 313 314 314 314 316 317 317 318 317 317 317 318 318 318 318 318 318 318 318 318 318 318 318 318 318 318 318 317 317 318 317 317 317 317 316 316 316 316 316 316 316 316 316 316 316 316 316 315 314 314 314 314 314 314 313 311 310 309 308 308 308 308 308 309 309 309 309 308 309
Wind_Speed
4 1 2 4 5 7 8 7 8 8 5 2 3 1 2 2 4 4 5 7 3 7 3 4 11 14 15 13 15 21 21 18 20 21 22 23 24 24 24 26 29 33 34 29 25 24 23 23 23 21 19 19 20 20 20 20 19 18 16 17 18 18 18 18 19 18 18 17 17 17 16 16 16 15 15 14 13 14 14 15 15 14 14 14 15 16
2 3 5 7 8 9 7 6 4 3 3 2 4 3 5 2 2 3 4 9 5 6 3 6 11 12 15 13 13 20 18 16 22 23 23 24 24 24 23 26 30 32 31 27 25 25 24 24 23 21 21 21 21 21 21 20 19 18 17 18 18 18 18 18 18 19 18 18 17 17 18 19 19 18 18 17 15 15 15 16 16 15 15 15 15 15
1 4 8 8 8 6 3 1 4 4 3 4 4 4 5 3 3 4 6 7 5 5 3 8 11 9 12 13 15 21 18 18 25 25 25 27 26 26 26 28 31 29 28 26 26 26 24 23 23 22 22 21 21 21 20 18 17 17 17 18 18 18 18 16 17 18 18 18 17 17 18 19 20 20 20 19 18 17 17 16 17 17 17 17 16 15
2 4 7 8 4 2 4 6 7 5 4 3 3 4 4 4 3 4 6 6 4 3 4 6 7 6 8 9 11 15 15 15 19 20 21 24 25 28 29 30 31 30 29 28 28 27 25 24 24 25 24 24 23 22 20 18 17 17 17 17 17 17 17 16 16 17 17 17 17 17 18 19 19 20 21 21 20 20 19 18 18 18 18 19 18 16
4 7 4 2 3 6 4 7 7 6 5 2 3 4 4 3 4 1 3 3 4 4 3 5 5 3 5 9 7 8 12 15 18 20 18 20 21 19 22 28 32 32 33 32 31 29 28 28 28 27 27 27 26 25 23 20 18 17 16 16 17 17 18 17 17 17 17 17 18 18 19 19 19 20 21 22 22 22 21 19 19 18 18 18 17 15
4 7 2 3 5 5 5 4 4 4 4 4 4 6 3 1 4 4 4 4 6 5 3 6 5 2 3 8 8 6 10 11 15 18 18 21 19 13 14 24 31 32 33 34 33 31 29 29 29 28 29 29 29 27 26 23 19 18 17 17 17 18 19 18 18 18 18 19 19 20 20 20 20 20 21 21 21 21 20 19 18 18 18 19 18 18
2 3 3 3 3 4 4 3 3 4 5 3 3 3 1 2 5 6 6 5 4 3 4 5 6 2 3 4 8 7 9 8 11 14 17 23 24 21 21 25 30 33 33 32 30 28 27 27 28 29 30 32 31 28 26 24 22 21 20 19 19 19 19 19 19 19 19 20 20 19 19 19 20 19 18 17 17 17 17 17 17 18 19 20 21 22
2 5 6 4 4 4 4 2 3 3 6 1 4 1 3 4 5 4 6 4 2 2 4 4 5 3 1 3 6 9 11 9 10 11 15 22 26 30 32 33 35 36 34 32 29 26 26 26 28 29 29 30 30 28 26 25 23 22 21 20 20 19 18 19 19 19 19 19 19 18 18 17 18 17 15 13 14 14 15 16 17 18 19 21 23 24
1 1 2 3 4 3 1 4 5 2 4 5 5 2 3 3 3 3 5 3 2 3 4 6 3 3 3 4 2 7 9 9 11 12 14 21 27 30 33 36 38 38 38 36 32 29 29 30 30 29 27 26 26 27 26 25 24 22 21 20 19 18 18 17 17 17 17 18 18 17 16 17 16 16 14 13 13 14 15 16 16 17 17 19 21 23
3 3 3 4 2 2 5 6 4 4 1 6 3 3 2 3 3 3 4 3 3 4 2 7 1 2 4 3 3 4 5 8 10 10 11 19 27 30 33 36 37 37 38 36 33 32 32 33 32 30 29 27 25 25 26 25 24 22 20 19 19 17 16 15 15 15 16 16 16 16 16 16 16 16 15 15 15 16 16 16 16 15 15 16 17 19
6 7 4 3 4 5 6 6 2 4 1 3 4 5 4 5 4 3 3 4 4 2 5 6 1 5 1 4 5 4 6 10 9 7 8 14 22 28 31 36 37 37 37 35 33 31 31 32 32 29 29 29 27 24 25 26 24 22 20 20 19 17 15 15 14 15 15 14 15 15 15 15 15 15 15 16 16 16 16 17 16 15 14 14 15 16
6 6 3 3 7 5 4 1 2 5 4 3 4 4 4 5 5 5 5 4 4 2 5 5 2 5 2 4 7 7 8 10 11 11 11 13 21 29 31 34 37 37 36 35 33 31 29 30 30 28 29 29 27 24 25 26 25 23 22 22 21 19 17 16 15 15 15 15 15 16 16 16 16 16 16 17 17 17 17 17 16 15 15 15 15 15
5 4 3 3 4 4 5 2 5 7 6 5 4 5 5 3 4 3 4 2 1 4 5 3 0 2 3 5 7 9 8 10 15 18 20 22 26 30 31 33 35 36 36 34 33 32 30 31 30 28 28 28 27 25 25 26 26 24 23 23 23 21 19 18 17 16 16 16 17 18 18 18 18 17 17 17 18 18 18 18 17 17 16 16 16 16
4 5 5 3 1 2 5 4 1 3 2 3 3 4 3 2 2 2 3 2 2 4 4 2 1 1 4 4 6 8 8 16 26 27 29 32 32 34 35 34 34 35 35 34 33 33 32 33 32 29 28 28 28 27 26 26 26 25 25 25 24 23 21 19 18 17 16 16 18 18 18 17 17 17 17 18 19 19 19 19 19 19 18 18 17 17
1 4 4 1 2 2 3 4 6 4 2 2 4 5 4 4 3 3 3 2 3 4 4 4 2 1 2 4 6 7 8 15 27 30 30 34 36 37 36 33 32 33 34 33 33 34 34 35 34 31 29 28 28 27 26 26 27 26 27 26 24 23 22 20 18 16 15 16 17 18 17 16 16 17 17 19 19 19 19 20 20 20 20 20 19 19
3 4 6 3 3 6 4 4 6 6 2 3 2 5 1 4 5 2 3 5 3 2 3 3 2 4 3 4 5 3 4 6 18 23 24 27 28 28 27 29 31 33 34 33 33 34 34 35 34 32 30 29 28 27 26 26 28 28 28 26 24 22 22 21 19 17 16 16 17 17 17 15 15 15 17 18 18 18 18 19 20 21 21 21 20 19
2 4 6 3 2 3 5 5 4 4 1 2 2 1 4 4 7 3 2 1 3 1 3 1 1 4 3 3 6 6 5 1 7 12 17 22 22 21 24 29 33 34 34 34 34 34 33 35 36 33 31 31 30 29 27 26 27 28 28 26 23 22 23 23 21 18 17 18 18 18 18 16 15 15 16 18 17 17 16 17 18 19 20 20 20 19
4 2 6 1 1 6 7 3 1 2 5 3 0 4 3 2 4 3 0 3 4 0 4 1 3 4 2 2 6 6 5 2 3 7 11 17 19 22 27 32 34 35 35 35 35 36 35 35 36 35 34 33 32 31 28 26 26 27 27 26 24 24 25 24 23 21 20 20 20 20 19 18 18 18 18 18 17 16 16 16 17 18 18 18 18 19
4 1 7 3 3 4 3 3 3 3 2 4 3 3 2 2 1 1 1 0 1 1 3 3 3 3 2 3 4 2 2 4 4 5 6 11 18 24 30 34 34 33 34 34 35 36 37 37 37 38 37 36 34 32 29 26 26 27 27 26 25 25 25 24 23 21 20 20 20 20 19 19 19 19 19 18 17 16 15 16 17 17 17 17 17 18
3 3 5 4 1 2 4 3 1 5 4 3 0 1 1 3 3 2 2 3 2 2 2 3 3 2 5 5 5 6 7 6 6 6 6 12 21 26 29 32 33 32 33 35 35 36 37 38 39 39 39 38 37 34 31 28 27 27 28 27 26 25 25 24 23 21 20 20 19 19 18 18 19 18 18 17 17 16 15 15 15 16 15 15 15 16
2 3 3 5 3 3 2 1 4 4 3 2 1 2 2 1 1 1 1 2 4 3 2 1 2 4 6 4 6 7 8 7 7 6 6 13 24 29 31 33 34 33 34 35 35 36 37 38 39 39 40 39 37 36 33 30 29 29 29 29 28 27 25 24 24 23 22 20 19 18 18 19 19 18 17 17 17 16 15 15 15 15 15 15 15 15
1 3 3 3 2 1 4 6 6 7 5 4 3 3 4 3 1 0 2 2 1 3 4 3 3 6 6 4 6 7 6 7 8 8 7 10 16 24 29 31 32 34 35 36 37 37 38 39 39 39 40 40 39 37 35 33 32 32 32 31 31 29 27 26 26 25 22 19 18 18 18 17 16 15 15 16 16 16 15 15 15 15 15 15 15 15
3 3 3 2 4 4 7 7 5 6 6 5 4 3 4 3 3 4 3 4 2 1 1 2 2 6 6 5 6 7 8 10 10 8 5 3 4 10 15 19 23 29 32 36 38 38 39 39 39 39 39 40 40 39 38 37 36 35 34 34 33 32 29 27 26 24 21 19 18 17 15 13 12 12 13 14 15 15 15 15 14 14 15 16 16 16
2 3 2 2 4 4 5 6 4 2 1 2 2 1 4 3 3 5 5 3 2 3 1 0 3 6 6 5 7 9 10 11 10 6 4 5 7 8 9 10 14 19 26 33 36 37 38 38 38 39 39 40 41 41 40 39 38 37 36 36 35 35 33 29 26 24 21 20 18 16 13 12 11 11 11 12 13 14 14 15 15 15 15 15 15 16
0 1 3 1 4 5 6 6 5 5 3 1 2 2 1 1 0 1 1 2 1 4 4 3 5 6 5 5 3 6 7 9 10 7 7 10 11 9 9 10 10 13 18 25 31 34 35 35 36 37 38 40 42 43 43 40 38 38 38 37 36 37 36 31 28 25 23 22 20 16 14 14 12 11 11 12 12 13 14 14 15 16 16 16 16 16
3 2 4 4 2 3 2 2 2 2 1 0 2 2 2 3 2 1 0 1 2 4 4 4 5 6 6 6 3 3 6 8 9 8 9 10 10 11 11 10 10 11 14 18 23 28 30 32 33 34 35 37 40 43 43 41 39 39 39 37 37 37 35 31 28 26 25 25 21 17 17 17 15 13 13 14 13 13 14 15 17 17 18 18 17 16
2 1 4 6 6 6 6 6 5 3 2 2 4 4 4 4 2 2 2 1 3 3 3 5 5 4 7 6 5 5 5 6 6 7 9 11 12 12 12 11 11 11 12 15 18 22 26 28 30 31 32 34 36 39 40 40 40 40 38 36 35 35 33 29 27 26 25 24 21 20 21 19 17 16 15 14 13 14 15 16 17 18 19 19 18 16
2 1 2 5 7 8 8 8 7 4 4 6 5 5 5 5 4 1 3 5 4 2 5 7 5 4 6 6 6 7 6 5 6 9 14 15 14 14 14 13 13 13 14 16 18 20 23 25 26 27 28 30 31 32 34 36 37 36 35 34 34 33 30 26 25 25 24 23 22 23 23 20 18 17 16 15 15 16 16 16 17 17 17 17 17 16
3 2 4 3 4 6 5 6 6 4 4 5 6 6 6 6 6 5 7 8 6 5 7 7 7 8 8 7 7 9 10 10 11 16 19 18 16 16 16 16 16 16 17 18 20 20 21 23 23 24 26 27 28 28 29 31 33 33 33 32 32 31 27 24 26 26 24 22 22 23 23 21 19 18 18 18 18 17 16 15 14 14 15 15 15 15
3 2 4 2 2 5 4 5 5 3 3 3 5 6 7 8 8 7 7 9 8 9 9 8 9 11 10 8 9 12 17 18 19 21 21 19 18 19 20 20 20 19 18 19 21 22 22 22 22 22 23 24 24 24 25 28 30 31 31 30 31 30 26 25 28 28 26 24 24 25 24 23 22 21 20 19 18 16 14 13 12 13 14 14 13 14
0 3 2 3 2 5 5 5 4 2 2 3 5 7 7 6 6 6 7 7 7 9 9 8 9 10 9 9 11 16 19 17 17 19 22 23 22 21 23 24 23 22 20 20 22 22 22 22 22 22 23 21 20 21 23 26 28 29 29 29 30 28 26 26 28 29 29 28 28 28 27 25 23 21 20 18 17 15 14 13 13 14 14 14 13 13
1 2 2 4 2 5 4 4 5 5 3 5 7 9 8 6 5 6 6 6 6 7 7 7 7 7 8 8 10 15 16 13 13 18 21 24 23 23 25 26 25 24 23 22 23 24 24 24 24 24 24 22 20 20 21 24 27 28 29 28 27 27 27 28 28 30 32 31 30 30 28 25 22 20 19 18 16 14 14 13 14 14 14 13 13 14
3 2 1 1 1 4 3 2 4 6 7 8 7 8 10 9 9 8 6 6 8 7 6 6 7 7 8 6 7 9 10 10 13 17 18 20 22 22 23 23 23 23 23 24 25 26 26 26 26 25 25 24 22 21 20 22 26 29 30 28 26 26 28 29 30 31 33 32 31 30 26 23 21 20 19 18 15 14 14 14 15 15 15 15 16 17
3 4 2 2 1 4 4 4 5 6 9 7 5 7 10 10 9 8 7 8 9 7 5 5 6 7 6 6 7 10 11 13 17 20 20 22 22 20 19 19 20 20 21 22 24 24 25 27 27 27 26 26 25 23 21 21 24 27 28 28 27 26 27 29 30 32 34 34 31 29 26 23 21 20 19 17 16 15 15 15 16 16 16 17 18 19
3 4 2 2 2 3 2 5 2 8 8 3 2 4 6 6 6 7 7 8 9 8 6 6 7 8 8 11 15 17 21 24 24 22 20 20 20 19 17 18 18 18 18 19 21 21 22 24 26 28 28 27 27 27 25 23 23 26 28 29 28 27 27 28 30 33 36 36 32 28 25 23 22 21 20 18 17 16 16 16 17 17 17 17 18 19
5 4 3 2 2 1 1 2 5 6 5 6 8 6 4 4 3 3 6 8 8 8 7 6 9 10 10 15 18 20 25 28 24 19 17 17 18 20 20 19 17 17 17 17 18 17 15 16 19 22 24 25 27 29 29 25 23 26 29 29 29 28 28 28 30 33 36 36 32 27 25 23 23 22 21 20 18 18 18 18 18 18 18 18 19 20
7 5 3 2 3 3 2 4 4 6 8 7 7 6 3 4 4 3 4 7 7 6 6 5 8 11 11 15 18 18 18 16 12 10 12 14 16 19 20 17 14 15 15 14 13 12 10 9 10 12 15 19 23 27 28 26 24 25 29 31 30 28 27 28 30 34 37 34 29 25 24 24 24 24 23 21 19 19 19 20 20 20 20 19 20 20
8 6 6 5 3 4 3 4 4 6 7 5 5 7 8 10 10 6 4 6 7 7 8 6 8 12 12 12 16 13 7 4 5 5 6 9 12 14 14 12 10 11 13 11 9 8 8 7 6 6 8 11 14 20 25 26 24 24 28 31 30 27 27 29 31 34 34 30 26 24 24 24 24 24 23 21 19 19 19 20 21 21 21 21 21 21
4 2 3 3 3 4 4 6 6 6 7 4 5 7 6 10 7 2 3 5 6 6 8 7 8 11 12 13 14 8 4 3 6 5 8 10 9 11 11 10 9 8 8 7 7 7 7 7 7 7 7 8 9 12 19 25 25 24 27 31 30 27 28 31 32 32 29 26 25 24 23 23 24 24 21 19 18 18 19 20 21 21 21 21 21 21
4 3 3 4 5 5 5 5 5 4 5 5 5 4 4 9 8 3 2 5 5 10 14 10 7 10 11 13 12 5 6 6 8 10 14 13 13 13 12 11 10 8 7 7 7 8 8 10 11 11 10 11 10 9 14 22 26 25 27 30 30 28 29 30 31 29 26 25 24 23 22 22 23 22 19 18 17 17 19 20 21 21 20 20 20 20
2 1 1 4 5 5 6 6 5 3 4 5 3 2 2 7 6 2 5 5 10 19 23 18 12 12 11 8 9 7 8 10 11 16 16 11 11 11 9 8 9 7 7 7 7 8 9 10 12 13 12 11 10 9 13 21 26 27 28 29 29 27 27 28 28 26 24 24 24 22 21 21 20 19 18 17 17 18 20 21 20 19 19 19 20 19
2 2 0 2 3 3 3 4 5 4 4 4 1 4 3 2 1 5 4 9 15 19 23 24 17 11 8 2 6 8 9 11 15 16 13 8 7 7 5 6 7 7 7 7 9 9 7 8 11 13 11 10 10 11 15 20 24 26 26 26 26 26 26 27 27 25 24 24 23 21 20 19 18 18 18 18 19 21 21 20 19 18 18 19 19 19
3 3 2 3 3 2 3 4 5 4 2 1 2 3 3 3 4 3 8 14 16 17 20 23 20 12 7 3 6 11 14 16 15 12 9 7 6 5 5 4 3 4 5 5 6 6 5 8 12 12 10 10 11 13 16 18 20 22 23 24 25 23 23 24 25 25 24 24 22 20 20 19 19 18 18 19 21 21 20 18 17 16 16 17 18 19
1 1 2 3 2 2 4 4 3 3 1 3 3 1 2 2 3 5 8 11 15 17 18 20 20 14 7 4 3 5 9 12 13 11 10 9 7 7 6 4 1 3 4 4 5 5 5 8 11 12 11 11 12 14 16 16 16 18 21 23 23 21 20 21 23 24 23 22 21 20 20 20 19 18 18 20 21 20 18 16 15 14 14 15 18 19
1 2 3 2 2 2 3 4 3 3 2 1 1 3 4 6 6 6 7 9 13 15 15 17 20 18 11 5 1 2 2 4 7 10 11 12 10 8 8 6 2 2 3 5 6 6 6 8 11 12 12 12 13 15 17 15 15 17 18 19 21 21 20 20 22 23 22 21 21 21 21 21 20 18 18 20 19 17 15 14 12 11 11 14 17 18
3 5 5 3 1 2 3 4 5 7 7 6 4 5 6 8 9 8 7 8 10 12 14 15 18 20 17 13 8 5 3 2 3 5 8 10 11 10 10 9 6 3 3 5 7 7 6 7 11 12 12 13 15 17 18 17 17 17 17 17 20 21 20 21 23 23 22 22 21 21 21 21 20 19 19 19 17 15 13 13 11 10 9 10 12 13
2 5 4 2 0 1 2 2 3 7 12 13 13 11 9 9 10 10 9 8 8 11 14 16 18 20 18 14 11 9 9 8 7 7 6 8 12 14 14 12 9 7 6 4 5 7 7 9 11 12 12 14 16 18 19 20 20 19 18 17 20 21 22 23 25 25 25 24 22 22 22 21 20 19 19 18 15 13 12 11 11 10 9 9 9 10
1 3 0 2 3 3 3 5 10 16 20 20 19 16 12 9 8 8 7 7 7 10 12 14 17 18 16 13 12 11 10 10 10 10 9 8 10 14 16 15 13 11 9 7 5 6 8 10 12 13 13 14 15 17 20 21 21 21 20 19 20 22 24 25 26 26 26 24 23 22 22 20 19 19 18 17 15 13 11 11 12 12 11 10 10 10
2 2 1 2 3 2 4 8 13 16 17 17 15 11 8 7 7 7 8 8 9 10 11 12 15 17 14 11 10 11 10 9 9 12 14 13 11 11 13 16 16 15 12 10 7 7 8 10 12 14 15 14 14 17 21 22 23 23 22 22 22 24 26 27 27 26 25 24 24 23 21 20 20 20 18 16 14 13 12 12 13 14 14 12 10 10
3 2 2 2 3 4 4 8 11 8 7 11 12 9 7 7 8 10 10 9 10 11 12 13 15 17 16 12 10 9 9 9 10 12 14 14 13 12 11 12 16 18 16 12 10 9 9 10 11 12 13 13 14 17 20 21 23 24 25 25 24 25 27 28 26 26 25 25 24 23 21 21 21 20 17 14 13 13 13 13 14 15 15 13 11 10
8 6 5 4 5 7 10 15 16 11 9 15 19 17 14 11 11 13 14 13 12 11 11 13 16 19 20 16 13 12 13 14 14 13 13 12 12 13 12 11 13 17 18 15 12 12 12 12 12 12 12 12 13 16 18 19 20 22 25 27 27 28 28 28 27 26 26 26 25 23 23 23 22 18 15 14 13 14 13 13 15 17 16 14 13 13
Wind_Direction
195 139 265 232 235 249 265 246 228 241 231 175 103 79 276 302 331 311 323 331 78 93 52 133 139 149 162 172 170 171 174 170 168 170 173 177 180 183 186 189 190 190 191 195 202 204 206 209 210 214 212 206 210 213 214 217 218 217 218 220 222 222 222 220 219 220 218 216 216 218 222 227 233 240 242 240 235 233 231 228 225 224 230 231 227 225
157 183 243 221 219 233 241 233 230 274 306 28 71 13 328 356 318 301 3 355 35 87 48 115 133 153 165 168 167 167 173 180 177 174 176 178 179 182 183 187 191 193 197 201 203 205 208 210 209 207 206 205 208 209 211 214 213 211 213 217 221 222 222 221 222 225 226 225 225 225 226 227 231 237 242 244 243 240 237 234 231 227 229 230 227 229
288 234 252 238 228 234 238 40 36 15 1 19 51 33 336 305 285 322 7 358 28 86 137 141 138 169 174 166 170 175 182 184 180 179 178 176 178 182 183 186 189 192 198 200 200 200 201 204 205 204 206 208 209 209 209 210 207 207 209 214 217 220 222 222 223 226 227 228 231 231 230 230 232 236 239 243 242 240 236 234 235 232 231 230 227 230
249 247 246 239 232 51 14 9 31 28 18 32 33 15 319 312 13 353 344 348 15 70 156 140 125 153 169 169 174 180 177 171 178 182 180 180 182 183 184 187 188 188 192 196 196 196 195 197 201 206 209 208 208 211 211 208 206 205 207 211 214 215 217 219 220 222 224 227 230 231 231 233 235 237 239 241 240 238 236 234 233 235 234 233 233 235
237 246 222 180 63 67 44 6 28 31 353 357 45 13 316 334 48 18 310 347 14 27 87 79 66 89 166 178 174 163 157 159 172 175 176 185 188 188 188 188 190 189 189 191 192 193 194 195 199 205 209 208 207 210 211 209 205 203 206 210 211 211 210 213 215 215 217 221 223 226 228 229 231 233 235 237 237 236 237 238 237 240 242 242 243 246
255 255 247 82 48 49 61 20 14 39 2 348 16 4 331 355 44 39 9 30 38 1 4 68 68 341 248 181 172 157 149 154 167 169 174 182 186 199 198 189 192 193 191 191 190 189 191 196 200 204 206 206 206 207 209 209 205 203 206 208 208 208 207 209 210 209 211 214 217 221 224 226 227 229 231 234 237 239 241 244 244 246 249 249 250 253
272 306 13 92 94 38 39 9 331 59 62 19 325 332 357 58 45 51 44 50 63 307 307 77 110 260 300 182 180 163 143 149 163 170 181 180 179 188 193 189 190 193 192 193 195 194 196 200 204 205 206 205 205 205 206 206 205 205 205 206 206 205 205 205 206 206 207 209 213 218 223 226 228 231 235 238 241 244 246 248 248 248 249 248 248 251
312 355 11 46 71 54 39 337 284 76 80 228 254 357 41 33 30 67 83 84 149 266 328 26 94 119 308 243 196 151 138 154 167 173 187 185 181 185 189 189 188 189 190 192 196 203 211 214 210 206 204 204 206 209 209 207 207 207 205 204 204 203 204 204 204 205 205 208 212 216 221 224 228 233 238 242 245 244 243 243 243 244 244 244 244 245
256 22 22 64 46 40 151 231 233 106 75 248 244 63 54 42 39 64 79 94 142 65 344 319 40 92 280 279 160 137 143 168 185 185 188 187 186 187 189 190 189 188 189 191 196 204 215 218 214 209 204 203 208 210 211 209 210 211 207 203 203 204 206 206 206 208 209 211 214 218 222 223 226 231 231 232 233 233 235 238 239 240 240 241 242 242
251 251 212 131 98 251 216 219 206 105 94 259 267 64 45 41 49 46 65 84 55 50 284 275 332 110 276 270 148 155 174 186 197 197 192 191 190 190 190 191 192 192 191 195 200 206 210 210 209 209 208 207 208 209 210 210 210 209 206 204 203 202 205 208 212 216 217 218 221 224 228 229 228 230 231 231 230 231 236 239 240 241 241 240 241 242
274 290 281 170 203 206 192 211 178 94 194 284 19 37 14 10 24 34 53 81 58 2 263 267 229 120 309 260 186 189 207 190 189 202 207 201 197 195 192 191 193 194 195 198 203 204 204 204 205 208 211 211 211 210 209 207 204 204 204 204 201 200 203 208 212 218 221 225 228 229 232 236 237 237 239 240 241 243 245 246 246 246 246 244 241 241
313 315 301 238 222 184 122 253 339 25 24 50 55 44 24 352 1 17 358 33 73 267 263 269 256 116 117 256 209 216 225 189 178 192 201 203 203 201 196 193 193 194 197 199 200 199 198 201 205 208 212 212 210 208 206 204 203 203 204 202 200 202 205 208 213 216 218 223 227 229 232 237 241 243 243 243 244 246 248 250 252 250 249 247 244 243
324 275 279 286 224 146 93 24 342 356 17 58 65 56 49 352 355 9 327 351 120 247 245 220 30 103 207 242 214 219 229 194 190 196 194 196 201 201 199 196 195 196 198 199 198 198 200 201 203 207 210 209 208 208 207 206 206 205 204 202 202 204 206 209 214 215 217 222 225 228 231 234 240 243 244 245 244 244 247 249 251 251 251 250 249 248
321 303 324 4 4 104 108 112 348 318 14 70 92 95 97 79 32 307 285 311 279 270 264 242 336 319 276 277 215 214 226 201 197 199 197 197 200 202 202 200 199 198 198 200 200 201 203 203 203 206 208 208 210 212 211 209 207 205 203 203 204 204 206 210 213 216 221 226 228 230 232 234 238 241 243 245 246 245 246 247 248 250 251 251 252 251
175 308 309 225 229 194 148 159 172 161 113 174 158 125 130 147 153 237 237 221 256 275 291 307 316 207 244 275 224 229 261 214 199 199 199 199 201 203 204 203 202 202 202 202 202 203 205 204 204 206 207 209 211 212 213 210 207 206 204 204 205 204 206 209 210 216 224 229 232 232 233 235 238 241 244 247 250 249 246 246 248 250 252 254 255 255
152 248 256 248 214 178 178 203 162 113 53 260 143 90 123 182 157 191 204 182 189 284 298 311 268 215 211 267 273 300 321 215 197 198 198 202 206 205 206 207 207 208 207 203 202 203 206 204 203 205 208 210 212 213 214 210 208 209 206 206 208 208 209 209 209 214 223 229 231 229 230 234 236 240 245 250 254 253 248 245 245 248 251 254 255 257
127 261 272 320 360 212 216 220 172 130 166 286 43 112 231 175 132 129 275 274 84 65 283 278 249 291 329 317 315 353 22 100 193 196 196 202 206 205 208 212 214 215 213 210 209 207 207 206 205 207 211 213 213 214 216 214 212 212 210 208 210 211 212 211 212 217 223 226 230 231 230 230 232 238 245 252 254 253 250 247 247 248 250 253 255 255
139 263 279 199 117 275 252 217 47 128 142 114 245 226 230 65 83 104 237 352 42 156 278 286 222 277 340 310 312 352 15 331 214 202 203 200 196 201 209 214 217 218 217 216 215 212 209 207 207 210 215 217 218 219 218 217 217 216 214 213 213 213 213 213 214 218 222 224 229 233 232 231 234 240 247 253 253 252 251 251 251 251 251 253 255 255
119 50 289 239 168 285 308 81 17 328 105 119 187 205 103 74 344 19 136 358 355 237 280 299 261 234 211 236 278 298 274 268 226 198 203 200 197 202 209 215 218 218 216 215 214 214 213 212 212 214 217 219 220 221 220 218 218 216 215 215 214 213 214 217 219 222 225 227 230 232 233 236 240 245 250 252 252 253 253 252 253 253 252 252 252 253
108 115 277 286 141 13 12 61 228 290 327 24 59 311 45 149 176 200 180 156 169 218 256 295 309 277 233 214 194 213 230 235 220 206 195 197 202 206 209 214 218 217 215 214 213 215 215 215 217 217 218 219 219 220 219 217 216 214 214 214 212 212 216 221 225 229 231 232 232 232 235 241 246 249 252 252 252 253 251 250 251 253 255 254 253 253
77 128 229 297 352 60 360 235 180 199 264 349 4 283 282 214 171 223 206 137 142 171 196 242 284 266 252 209 179 212 228 217 211 214 205 197 201 208 211 214 216 215 215 216 215 215 215 217 218 218 218 219 219 219 217 214 213 212 212 212 212 213 216 220 225 230 234 233 232 235 241 247 252 254 253 251 250 251 249 248 247 248 251 253 254 255
146 152 182 276 320 201 234 233 188 179 189 166 168 211 208 195 153 135 280 287 134 158 176 187 253 263 255 204 192 214 220 217 216 210 216 212 203 208 215 218 219 217 216 217 217 217 217 218 218 217 217 217 217 216 215 213 212 211 210 210 211 213 215 220 225 227 229 230 232 237 241 247 251 252 251 246 244 246 247 248 248 248 248 249 252 255
155 122 125 213 243 226 239 250 228 207 194 166 180 198 167 145 125 143 224 262 271 255 186 141 243 265 257 214 207 220 214 213 218 216 229 243 189 189 201 211 218 218 218 218 218 219 220 219 219 218 217 217 216 216 216 215 213 212 212 210 210 212 213 216 220 223 225 225 227 230 231 234 240 244 245 242 241 244 246 248 249 249 250 251 252 254
90 101 114 265 293 304 294 293 286 266 145 129 267 224 148 163 164 166 186 193 218 257 258 355 270 269 273 249 216 215 216 214 217 219 196 166 154 159 169 182 199 211 217 219 220 220 221 220 220 218 217 217 216 217 217 216 215 214 212 211 212 213 213 211 213 220 222 219 220 223 220 219 227 234 236 235 237 241 243 246 248 250 253 254 254 255
229 208 118 50 331 332 333 340 340 343 31 121 269 300 148 251 15 151 133 83 251 239 192 197 256 254 272 294 249 200 204 215 218 200 166 161 164 172 176 176 181 192 205 214 218 221 221 221 221 220 220 220 220 219 218 218 219 217 215 215 215 215 216 215 213 216 218 217 221 223 216 213 218 225 231 235 240 246 250 254 256 258 260 259 257 256
169 207 134 131 217 248 266 278 264 282 340 271 293 328 328 321 326 291 36 85 261 248 179 184 244 264 287 311 307 214 192 208 216 188 166 174 181 186 189 190 194 196 201 207 213 218 221 224 226 225 224 224 223 221 220 221 223 221 219 218 219 219 220 218 214 213 215 217 218 215 209 211 217 225 237 246 251 257 262 265 267 269 270 267 261 257
126 188 156 161 189 208 204 214 217 173 147 269 285 289 285 278 247 157 117 188 214 210 212 221 224 263 291 284 271 263 226 214 221 200 192 197 196 198 202 207 214 219 219 216 214 216 219 222 226 227 226 226 225 224 223 224 225 223 221 220 222 221 217 214 213 211 209 210 207 204 206 211 218 227 239 247 251 256 262 268 271 271 271 268 261 257
60 300 246 181 199 212 196 208 221 188 189 219 232 255 267 269 267 242 241 234 195 182 267 253 212 221 261 250 250 270 260 241 238 227 224 222 212 208 211 213 219 224 224 221 218 219 219 220 223 224 225 226 227 228 228 227 226 224 224 225 224 218 211 211 213 208 205 207 204 202 207 213 218 227 236 243 249 256 261 266 267 264 263 261 258 256
123 257 262 196 234 250 213 225 242 226 219 203 193 218 240 249 243 232 244 236 199 213 251 240 218 231 246 234 224 232 229 225 232 234 236 237 229 217 212 213 217 220 221 218 219 223 225 224 224 222 222 224 227 231 230 228 226 225 227 227 220 212 209 212 214 213 212 211 207 205 210 214 219 227 236 243 250 256 260 260 257 255 254 252 253 255
126 256 249 182 300 295 268 266 267 252 252 228 210 222 230 240 233 220 238 239 222 234 246 236 235 245 249 237 224 229 229 228 237 243 241 240 235 221 212 212 217 221 225 225 224 225 226 226 228 227 225 226 229 231 229 226 224 224 224 221 213 208 210 214 216 217 217 217 216 216 217 219 224 231 237 243 249 254 256 252 246 246 248 248 251 257
102 253 243 93 13 301 287 283 283 276 246 233 246 249 244 257 261 240 240 240 235 247 252 249 251 255 255 241 235 243 242 234 236 241 238 239 241 229 214 213 219 223 229 235 235 232 229 228 228 228 228 231 232 232 229 226 224 222 218 214 210 210 212 216 217 217 218 220 222 221 220 221 225 232 237 242 247 249 247 243 243 245 248 250 255 261
108 258 349 58 353 279 281 300 313 330 313 258 254 257 255 258 256 243 234 215 211 230 245 252 255 259 259 246 236 244 246 241 241 241 236 235 233 224 216 218 225 228 231 237 238 236 234 233 231 230 230 232 232 232 232 230 224 219 216 213 213 215 216 218 220 218 218 220 220 218 217 220 225 231 235 239 244 244 239 237 242 247 248 250 256 265
140 124 68 85 265 273 278 327 345 344 316 277 248 235 234 232 230 240 250 234 217 208 214 232 238 244 251 244 235 240 240 239 242 241 234 226 220 220 223 228 233 237 238 240 239 237 235 234 235 236 235 235 234 231 232 231 225 221 218 214 212 215 218 220 221 220 219 218 215 214 216 223 231 232 232 235 239 237 233 233 237 242 245 251 262 271
157 127 150 166 175 266 291 28 17 310 281 259 217 200 208 215 218 223 237 242 231 214 208 230 246 253 252 234 226 234 234 235 242 245 241 235 229 225 227 232 236 240 242 242 241 241 240 239 239 239 239 238 238 235 231 230 229 227 222 215 212 215 221 225 225 222 219 216 214 215 221 228 231 228 227 228 227 226 228 232 235 240 246 255 265 274
156 143 163 137 144 255 327 49 344 270 258 252 281 235 223 232 227 222 242 250 241 239 241 250 258 255 244 235 233 238 243 245 249 251 247 244 240 231 227 233 237 239 238 236 235 236 239 241 242 242 241 240 240 238 232 228 229 229 223 217 215 219 226 232 232 226 221 218 217 219 224 226 223 222 222 221 221 226 232 234 237 242 249 256 266 276
167 152 148 139 167 220 63 149 225 261 292 307 308 299 277 276 249 235 278 272 248 234 221 228 253 251 241 242 245 251 253 250 248 247 239 237 238 232 232 239 240 240 239 231 224 223 225 230 235 238 241 243 243 240 234 228 227 227 223 219 219 223 228 232 233 227 219 217 218 220 221 219 217 218 219 221 225 231 234 236 241 246 252 260 269 277
168 153 155 186 201 174 180 216 243 305 309 289 288 289 276 277 262 227 260 273 257 231 208 220 265 268 256 251 253 259 260 252 247 245 232 232 238 235 235 240 241 235 227 212 206 210 210 209 214 223 235 244 246 243 238 231 225 225 223 220 221 225 227 226 223 218 214 214 216 217 216 216 216 217 219 226 232 236 238 240 244 249 255 263 270 276
181 173 176 195 200 170 199 240 256 284 275 224 213 242 260 288 281 221 201 274 275 254 241 236 259 272 268 252 249 251 243 229 254 252 202 206 227 227 222 223 221 210 200 193 196 204 204 206 217 229 237 240 242 244 242 232 222 221 222 221 223 224 220 216 213 210 210 211 213 215 216 217 218 220 224 232 237 241 244 244 247 252 259 266 273 278
154 99 141 181 204 171 190 234 240 248 254 227 206 223 270 319 318 159 162 281 273 278 284 260 253 277 275 248 242 234 152 168 252 227 155 148 168 177 173 171 172 178 190 203 218 228 237 248 258 262 259 249 242 245 243 232 220 216 218 220 224 222 214 210 208 207 208 212 213 215 218 218 220 224 229 237 241 245 248 249 251 257 263 269 275 279
83 56 130 187 215 189 184 229 246 239 246 244 226 226 311 354 13 81 219 262 283 324 321 298 289 323 306 257 237 191 160 219 231 182 151 137 141 149 149 151 158 169 186 199 211 229 247 257 257 252 251 254 253 251 242 228 218 215 218 220 222 221 214 211 210 209 211 214 215 215 216 217 221 226 232 240 245 249 250 251 253 259 265 269 273 277
73 52 177 196 208 198 194 225 254 264 248 243 217 184 358 14 28 160 208 260 315 332 335 328 324 345 340 278 228 195 207 223 192 160 151 146 148 151 154 167 176 185 198 215 239 253 254 252 248 242 239 241 244 241 233 224 219 220 222 220 219 218 215 214 213 212 213 214 213 213 214 216 223 230 238 244 247 248 248 250 254 259 263 266 271 277
160 128 61 193 192 194 190 222 266 276 242 239 133 104 93 53 216 218 263 316 324 332 339 337 331 339 351 316 182 162 157 160 155 153 154 163 170 171 183 200 205 214 225 241 259 266 260 240 228 225 225 221 217 220 220 217 216 218 218 218 219 220 216 214 213 213 212 211 212 213 216 220 228 235 240 242 242 243 245 248 253 257 261 267 273 277
188 162 190 187 174 148 165 216 264 264 225 326 28 90 128 180 207 255 315 325 332 339 338 336 337 348 8 50 141 145 144 148 156 164 171 181 188 189 194 201 222 238 234 238 248 243 230 224 220 218 219 215 208 211 214 214 217 220 222 224 226 223 217 213 211 210 210 211 215 219 221 225 231 235 239 239 239 240 243 248 254 258 266 273 275 274
245 175 198 196 179 155 175 207 228 206 198 6 12 197 238 297 334 345 326 314 326 339 336 329 328 335 356 41 95 142 162 169 173 176 179 182 182 185 190 189 258 269 238 231 243 236 224 230 230 223 218 216 214 215 215 217 222 225 226 227 225 222 219 215 211 211 213 216 221 223 224 226 231 235 238 238 237 238 244 252 258 267 277 277 271 268
225 176 182 204 220 190 203 246 266 242 241 331 160 213 269 298 309 331 338 323 322 330 334 328 319 315 314 313 307 122 135 168 188 196 198 194 189 192 202 205 216 297 259 236 241 247 248 247 240 228 220 220 220 217 216 216 218 222 225 225 222 222 224 220 215 215 217 220 223 225 227 230 233 235 236 234 234 239 249 258 267 281 288 278 267 265
198 179 173 179 259 267 254 272 298 301 293 292 279 256 259 273 279 287 307 320 321 322 327 326 315 305 300 293 278 256 245 266 269 241 219 209 206 207 207 207 212 245 254 234 236 243 242 231 228 227 225 225 222 219 220 219 218 222 228 225 220 222 224 222 220 220 222 225 227 228 231 233 233 232 230 230 234 243 255 265 274 288 295 284 273 268
207 175 173 171 219 276 240 203 237 268 277 293 303 292 271 270 279 279 277 287 308 317 318 317 313 305 295 286 280 263 241 241 267 278 259 231 220 214 211 213 221 229 227 222 230 234 222 216 225 231 231 227 224 222 224 225 225 227 227 222 220 223 224 222 222 223 224 226 228 228 231 234 233 230 226 228 236 247 258 268 275 279 285 289 282 271
163 130 156 241 200 209 246 260 269 272 278 289 295 290 279 275 281 289 290 293 308 314 310 306 309 309 299 281 275 269 248 238 250 262 264 250 229 221 223 226 228 229 223 214 217 224 220 224 235 240 239 237 233 227 226 228 230 230 227 224 224 226 224 222 223 224 226 228 228 230 233 234 233 229 227 233 242 250 258 268 271 270 276 286 287 278
183 136 187 219 223 267 286 280 279 283 288 287 278 272 277 281 280 290 304 310 307 304 304 301 301 307 307 292 281 280 270 255 256 263 264 259 248 238 233 231 232 232 226 218 223 229 227 231 238 242 245 250 246 237 232 232 234 234 230 227 228 228 226 225 225 227 229 230 230 231 234 233 230 229 232 238 246 250 253 261 267 269 274 280 283 281
197 204 188 190 263 272 252 254 261 269 282 277 269 264 270 277 279 278 283 297 299 295 302 308 305 305 305 297 289 292 286 277 279 277 266 256 251 248 241 233 234 234 228 224 232 235 232 235 240 244 250 253 251 244 241 239 239 239 235 231 230 230 229 227 228 230 231 231 230 231 232 230 228 229 233 240 247 249 251 257 264 269 271 272 275 275
214 226 198 194 237 245 245 259 264 258 259 275 281 279 272 272 281 277 273 278 284 285 296 304 303 305 305 295 283 286 283 271 270 279 281 268 253 246 245 241 238 234 229 226 229 233 235 236 239 246 253 255 253 251 250 249 248 245 240 235 232 231 230 229 230 231 231 229 229 230 231 229 226 227 234 242 247 248 251 259 264 264 264 266 270 270